| time (UTC) | temp F | wind direction | speed MPH | gust MPH | rain 1hr in | rain 24hr in | rain mn in | humidity % | barometer mb |
| 20260510192040 | 69 | 159 | 0.0 | 4.0 | 0.00 | 0.12 | 0.02 | 48 | 1019.2 |
| 20260510191541 | 68 | 154 | 0.0 | 4.0 | 0.00 | 0.12 | 0.02 | 57 | 1019.2 |
| 20260510191039 | 67 | 159 | 0.0 | 3.0 | 0.00 | 0.12 | 0.02 | 60 | 1019.2 |
| 20260510190537 | 66 | 109 | 0.0 | 2.0 | 0.00 | 0.12 | 0.02 | 52 | 1019.2 |
| 20260510190039 | 65 | 92 | 0.0 | 1.0 | 0.00 | 0.12 | 0.02 | 60 | 1019.1 |
| 20260510185537 | 65 | 92 | 0.0 | 1.0 | 0.00 | 0.12 | 0.02 | 59 | 1019.1 |
| 20260510185038 | 66 | 92 | 0.0 | 1.0 | 0.00 | 0.12 | 0.02 | 64 | 1019.1 |
| 20260510184540 | 66 | 104 | 0.0 | 1.0 | 0.00 | 0.12 | 0.02 | 51 | 1019.0 |
| 20260510184037 | 66 | 105 | 0.0 | 3.0 | 0.00 | 0.12 | 0.02 | 59 | 1019.1 |
| 20260510183536 | 67 | 105 | 0.0 | 3.0 | 0.00 | 0.12 | 0.02 | 64 | 1019.0 |
| 20260510183037 | 67 | 355 | 0.0 | 4.0 | 0.00 | 0.12 | 0.02 | 46 | 1018.9 |
| 20260510182537 | 67 | 13 | 0.0 | 4.0 | 0.00 | 0.12 | 0.02 | 54 | 1018.9 |
| 20260510182035 | 67 | 130 | 0.0 | 3.0 | 0.00 | 0.12 | 0.02 | 55 | 1018.8 |
| 20260510181536 | 66 | 248 | 0.0 | 2.0 | 0.00 | 0.12 | 0.02 | 47 | 1018.8 |
| 20260510181033 | 66 | 128 | 0.0 | 2.0 | 0.00 | 0.12 | 0.02 | 53 | 1018.7 |
| 20260510180532 | 66 | 144 | 0.0 | 2.0 | 0.00 | 0.12 | 0.02 | 60 | 1018.8 |
| 20260510180041 | 65 | 29 | 0.0 | 1.0 | 0.00 | 0.12 | 0.02 | 62 | 1018.8 |
| 20260510175530 | 64 | 28 | 0.0 | 3.0 | 0.00 | 0.12 | 0.02 | 54 | 1018.9 |
| 20260510175027 | 64 | 355 | 0.0 | 3.0 | 0.00 | 0.12 | 0.02 | 63 | 1018.9 |
| 20260510174526 | 63 | 355 | 0.0 | 0.0 | 0.00 | 0.12 | 0.02 | 64 | 1018.9 |
| 20260510174026 | 63 | 355 | 0.0 | 0.0 | 0.00 | 0.12 | 0.02 | 65 | 1019.0 |
| 20260510173525 | 63 | 355 | 0.0 | 0.0 | 0.00 | 0.12 | 0.02 | 66 | 1019.2 |
| 20260510173032 | 62 | 355 | 0.0 | 0.0 | 0.00 | 0.12 | 0.02 | 68 | 1019.1 |
| 20260510172527 | 62 | 355 | 0.0 | 1.0 | 0.00 | 0.12 | 0.02 | 67 | 1019.1 |
| 20260510172025 | 63 | 321 | 0.0 | 0.0 | 0.00 | 0.12 | 0.02 | 65 | 1019.2 |
| 20260510171527 | 63 | 319 | 0.0 | 1.0 | 0.00 | 0.12 | 0.02 | 66 | 1019.3 |
| 20260510171024 | 63 | 317 | 0.0 | 1.0 | 0.00 | 0.12 | 0.02 | 64 | 1019.3 |
| 20260510170524 | 63 | 9 | 0.0 | 2.0 | 0.00 | 0.12 | 0.02 | 68 | 1019.3 |
| 20260510170023 | 63 | 5 | 0.0 | 2.0 | 0.00 | 0.12 | 0.02 | 59 | 1019.3 |
| 20260510165523 | 63 | 360 | 0.0 | 0.0 | 0.00 | 0.12 | 0.02 | 67 | 1019.4 |
| 20260510165024 | 62 | 11 | 0.0 | 0.0 | 0.00 | 0.12 | 0.02 | 67 | 1019.3 |
| 20260510164521 | 61 | 5 | 0.0 | 1.0 | 0.00 | 0.12 | 0.02 | 68 | 1019.5 |
| 20260510164021 | 61 | 5 | 0.0 | 1.0 | 0.00 | 0.12 | 0.02 | 71 | 1019.5 |
| 20260510163520 | 61 | 92 | 0.0 | 0.0 | 0.00 | 0.12 | 0.02 | 74 | 1019.4 |
| 20260510163021 | 61 | 94 | 0.0 | 0.0 | 0.00 | 0.12 | 0.02 | 72 | 1019.3 |
| 20260510162521 | 61 | 94 | 0.0 | 0.0 | 0.00 | 0.12 | 0.02 | 71 | 1019.4 |
| 20260510162020 | 61 | 84 | 0.0 | 0.0 | 0.00 | 0.12 | 0.02 | 71 | 1019.4 |
| 20260510161519 | 61 | 84 | 0.0 | 0.0 | 0.00 | 0.12 | 0.02 | 68 | 1019.3 |
| 20260510161020 | 61 | 84 | 0.0 | 0.0 | 0.00 | 0.12 | 0.02 | 70 | 1019.4 |
| 20260510160520 | 62 | 82 | 0.0 | 0.0 | 0.00 | 0.12 | 0.02 | 67 | 1019.4 |
| 20260510160019 | 62 | 82 | 0.0 | 0.0 | 0.00 | 0.12 | 0.02 | 68 | 1019.6 |
| 20260510155517 | 61 | 82 | 0.0 | 2.0 | 0.00 | 0.12 | 0.02 | 71 | 1019.6 |
| 20260510155017 | 61 | 90 | 0.0 | 2.0 | 0.00 | 0.12 | 0.02 | 63 | 1019.6 |
| 20260510154516 | 60 | 163 | 0.0 | 3.0 | 0.00 | 0.12 | 0.02 | 76 | 1019.6 |
| 20260510154015 | 59 | 162 | 0.0 | 3.0 | 0.00 | 0.12 | 0.02 | 71 | 1019.5 |
| 20260510153519 | 58 | 112 | 0.0 | 2.0 | 0.00 | 0.12 | 0.02 | 75 | 1019.4 |
| 20260510153031 | 57 | 53 | 0.0 | 1.0 | 0.00 | 0.12 | 0.02 | 75 | 1019.3 |
| 20260510152513 | 57 | 61 | 0.0 | 1.0 | 0.00 | 0.12 | 0.02 | 78 | 1019.3 |
| 20260510152012 | 57 | 62 | 0.0 | 1.0 | 0.00 | 0.12 | 0.02 | 78 | 1019.1 |
| 20260510151517 | 57 | 107 | 0.0 | 1.0 | 0.00 | 0.12 | 0.02 | 77 | 1019.0 |
| 20260510151011 | 57 | 80 | 0.0 | 0.0 | 0.00 | 0.12 | 0.02 | 83 | 1019.0 |
| 20260510150513 | 57 | 80 | 0.0 | 1.0 | 0.00 | 0.12 | 0.02 | 81 | 1018.9 |
| 20260510150011 | 57 | 41 | 0.0 | 4.0 | 0.00 | 0.12 | 0.02 | 81 | 1018.9 |
| 20260510145511 | 57 | 38 | 0.0 | 4.0 | 0.00 | 0.12 | 0.02 | 79 | 1018.8 |
| 20260510145009 | 57 | 175 | 0.0 | 0.0 | 0.00 | 0.12 | 0.02 | 84 | 1018.7 |
| 20260510144510 | 57 | 175 | 0.0 | 0.0 | 0.00 | 0.12 | 0.02 | 85 | 1018.7 |
| 20260510144008 | 57 | 175 | 0.0 | 0.0 | 0.00 | 0.12 | 0.02 | 84 | 1018.7 |
| 20260510143510 | 57 | 175 | 0.0 | 3.0 | 0.00 | 0.12 | 0.02 | 85 | 1018.7 |
| 20260510143007 | 56 | 175 | 0.0 | 4.0 | 0.00 | 0.12 | 0.02 | 86 | 1018.6 |
| 20260510142508 | 56 | 111 | 0.0 | 4.0 | 0.00 | 0.12 | 0.02 | 86 | 1018.4 |
| 20260510142005 | 56 | 76 | 0.0 | 2.0 | 0.00 | 0.12 | 0.02 | 91 | 1018.3 |
| 20260510141504 | 55 | 79 | 0.0 | 1.0 | 0.01 | 0.12 | 0.02 | 91 | 1018.3 |
| 20260510141004 | 55 | 76 | 0.0 | 1.0 | 0.01 | 0.12 | 0.02 | 90 | 1018.1 |
| 20260510140502 | 54 | 75 | 0.0 | 2.0 | 0.01 | 0.12 | 0.02 | 91 | 1017.9 |
| 20260510140002 | 54 | 131 | 0.0 | 2.0 | 0.01 | 0.12 | 0.02 | 91 | 1017.7 |
| 20260510135503 | 54 | 91 | 0.0 | 2.0 | 0.01 | 0.12 | 0.02 | 92 | 1017.7 |
| 20260510135002 | 53 | 93 | 0.0 | 0.0 | 0.01 | 0.12 | 0.02 | 92 | 1017.8 |
| 20260510134502 | 53 | 99 | 0.0 | 0.0 | 0.01 | 0.12 | 0.02 | 92 | 1017.8 |
| 20260510134001 | 53 | 99 | 0.0 | 1.0 | 0.01 | 0.12 | 0.02 | 92 | 1017.8 |
| 20260510133501 | 53 | 98 | 0.0 | 1.0 | 0.01 | 0.12 | 0.02 | 92 | 1017.8 |
| 20260510133002 | 53 | 98 | 0.0 | 1.0 | 0.01 | 0.12 | 0.02 | 92 | 1017.8 |
| 20260510132501 | 53 | 98 | 0.0 | 1.0 | 0.01 | 0.12 | 0.02 | 93 | 1017.8 |
| 20260510132101 | 53 | 98 | 0.0 | 0.0 | 0.01 | 0.12 | 0.02 | 92 | 1017.7 |
| 20260510131600 | 52 | 98 | 0.0 | 0.0 | 0.00 | 0.11 | 0.01 | 92 | 1017.9 |
| 20260510131059 | 52 | 98 | 0.0 | 0.0 | 0.00 | 0.11 | 0.01 | 92 | 1017.8 |
| 20260510130559 | 52 | 98 | 0.0 | 0.0 | 0.00 | 0.11 | 0.01 | 92 | 1017.6 |
| 20260510130059 | 52 | 98 | 0.0 | 0.0 | 0.00 | 0.11 | 0.01 | 92 | 1017.7 |
| 20260510125601 | 52 | 98 | 0.0 | 0.0 | 0.00 | 0.11 | 0.01 | 92 | 1017.7 |
| 20260510125058 | 52 | 98 | 0.0 | 0.0 | 0.00 | 0.11 | 0.01 | 92 | 1017.6 |
| 20260510124610 | 51 | 98 | 0.0 | 0.0 | 0.00 | 0.11 | 0.01 | 92 | 1017.5 |
| 20260510124058 | 51 | 98 | 0.0 | 0.0 | 0.00 | 0.11 | 0.01 | 92 | 1017.4 |
| 20260510123556 | 51 | 98 | 0.0 | 0.0 | 0.00 | 0.11 | 0.01 | 92 | 1017.3 |
| 20260510123056 | 51 | 98 | 0.0 | 0.0 | 0.00 | 0.11 | 0.01 | 92 | 1017.1 |
| 20260510122556 | 51 | 98 | 0.0 | 0.0 | 0.00 | 0.11 | 0.01 | 91 | 1017.0 |
| 20260510122053 | 51 | 98 | 0.0 | 0.0 | 0.00 | 0.11 | 0.01 | 91 | 1016.9 |
| 20260510121552 | 51 | 98 | 0.0 | 0.0 | 0.00 | 0.11 | 0.01 | 91 | 1016.8 |
| 20260510121052 | 51 | 98 | 0.0 | 0.0 | 0.00 | 0.11 | 0.01 | 91 | 1016.8 |
| 20260510120551 | 51 | 98 | 0.0 | 0.0 | 0.00 | 0.11 | 0.01 | 91 | 1016.7 |
| 20260510120050 | 51 | 98 | 0.0 | 0.0 | 0.00 | 0.11 | 0.01 | 91 | 1016.6 |
| 20260510115550 | 51 | 98 | 0.0 | 0.0 | 0.00 | 0.11 | 0.01 | 91 | 1016.6 |
| 20260510115049 | 52 | 98 | 0.0 | 0.0 | 0.00 | 0.11 | 0.01 | 91 | 1016.4 |
| 20260510114550 | 52 | 98 | 0.0 | 0.0 | 0.00 | 0.11 | 0.01 | 91 | 1016.4 |
| 20260510114051 | 52 | 98 | 0.0 | 0.0 | 0.00 | 0.11 | 0.01 | 91 | 1016.2 |
| 20260510113547 | 52 | 98 | 0.0 | 0.0 | 0.00 | 0.11 | 0.01 | 91 | 1016.1 |
| 20260510113046 | 52 | 98 | 0.0 | 0.0 | 0.00 | 0.11 | 0.01 | 91 | 1015.9 |
| 20260510112545 | 52 | 98 | 0.0 | 0.0 | 0.00 | 0.11 | 0.01 | 91 | 1016.0 |
| 20260510112044 | 52 | 98 | 0.0 | 0.0 | 0.00 | 0.11 | 0.01 | 91 | 1015.8 |
| 20260510111543 | 52 | 98 | 0.0 | 0.0 | 0.00 | 0.11 | 0.01 | 91 | 1015.6 |
| 20260510111042 | 53 | 98 | 0.0 | 0.0 | 0.00 | 0.11 | 0.01 | 91 | 1015.6 |
| 20260510110541 | 53 | 98 | 0.0 | 0.0 | 0.00 | 0.11 | 0.01 | 91 | 1015.5 |
| 20260510110043 | 53 | 98 | 0.0 | 0.0 | 0.00 | 0.11 | 0.01 | 91 | 1015.4 |
| 20260510105540 | 53 | 98 | 0.0 | 0.0 | 0.00 | 0.11 | 0.01 | 91 | 1015.4 |
| 20260510105039 | 53 | 98 | 0.0 | 0.0 | 0.00 | 0.11 | 0.01 | 91 | 1015.2 |
| 20260510104538 | 53 | 98 | 0.0 | 0.0 | 0.00 | 0.11 | 0.01 | 91 | 1015.1 |
| 20260510104037 | 53 | 98 | 0.0 | 0.0 | 0.00 | 0.11 | 0.01 | 91 | 1015.0 |
| 20260510103536 | 53 | 98 | 0.0 | 0.0 | 0.00 | 0.11 | 0.01 | 91 | 1014.8 |
| 20260510103036 | 53 | 98 | 0.0 | 0.0 | 0.00 | 0.11 | 0.01 | 91 | 1014.8 |
| 20260510102535 | 53 | 98 | 0.0 | 0.0 | 0.00 | 0.11 | 0.01 | 91 | 1014.8 |
| 20260510102034 | 53 | 98 | 0.0 | 0.0 | 0.00 | 0.11 | 0.01 | 91 | 1014.8 |
| 20260510101537 | 54 | 98 | 0.0 | 0.0 | 0.00 | 0.11 | 0.01 | 91 | 1014.6 |
| 20260510101034 | 54 | 98 | 0.0 | 0.0 | 0.00 | 0.11 | 0.01 | 91 | 1014.5 |
| 20260510100532 | 54 | 98 | 0.0 | 0.0 | 0.00 | 0.11 | 0.01 | 91 | 1014.5 |
| 20260510100032 | 54 | 98 | 0.0 | 0.0 | 0.00 | 0.11 | 0.01 | 91 | 1014.3 |
| 20260510095532 | 54 | 98 | 0.0 | 0.0 | 0.00 | 0.11 | 0.01 | 91 | 1014.3 |
| 20260510095030 | 54 | 98 | 0.0 | 0.0 | 0.00 | 0.11 | 0.01 | 91 | 1014.1 |
| 20260510094531 | 54 | 98 | 0.0 | 0.0 | 0.00 | 0.11 | 0.01 | 90 | 1014.1 |
| 20260510094030 | 54 | 98 | 0.0 | 0.0 | 0.00 | 0.11 | 0.01 | 90 | 1014.2 |
| 20260510093528 | 55 | 98 | 0.0 | 0.0 | 0.00 | 0.11 | 0.01 | 91 | 1014.1 |
| 20260510093032 | 55 | 98 | 0.0 | 0.0 | 0.00 | 0.11 | 0.01 | 91 | 1014.1 |
| 20260510092527 | 55 | 98 | 0.0 | 0.0 | 0.00 | 0.11 | 0.01 | 91 | 1014.0 |
| 20260510092026 | 55 | 98 | 0.0 | 0.0 | 0.00 | 0.11 | 0.01 | 91 | 1014.0 |
| 20260510091533 | 55 | 98 | 0.0 | 0.0 | 0.00 | 0.11 | 0.01 | 91 | 1014.0 |
| 20260510091025 | 55 | 98 | 0.0 | 0.0 | 0.00 | 0.11 | 0.01 | 91 | 1014.0 |
| 20260510090525 | 55 | 98 | 0.0 | 0.0 | 0.00 | 0.11 | 0.01 | 91 | 1013.9 |
| 20260510090029 | 55 | 98 | 0.0 | 0.0 | 0.00 | 0.11 | 0.01 | 91 | 1013.8 |
| 20260510085524 | 56 | 98 | 0.0 | 0.0 | 0.00 | 0.11 | 0.01 | 91 | 1013.7 |
| 20260510085022 | 56 | 98 | 0.0 | 0.0 | 0.00 | 0.11 | 0.01 | 90 | 1013.6 |
| 20260510084521 | 56 | 98 | 0.0 | 0.0 | 0.00 | 0.11 | 0.01 | 90 | 1013.5 |
| 20260510084020 | 56 | 98 | 0.0 | 0.0 | 0.00 | 0.11 | 0.01 | 90 | 1013.4 |
| 20260510083520 | 56 | 98 | 0.0 | 0.0 | 0.00 | 0.11 | 0.01 | 90 | 1013.3 |
| 20260510083021 | 56 | 98 | 0.0 | 0.0 | 0.00 | 0.11 | 0.01 | 90 | 1013.2 |
| 20260510082516 | 56 | 98 | 0.0 | 0.0 | 0.00 | 0.11 | 0.01 | 90 | 1013.0 |
| 20260510082016 | 57 | 98 | 0.0 | 0.0 | 0.00 | 0.11 | 0.01 | 90 | 1012.8 |
| 20260510081515 | 57 | 98 | 0.0 | 0.0 | 0.00 | 0.11 | 0.01 | 90 | 1012.8 |
| 20260510081016 | 57 | 98 | 0.0 | 0.0 | 0.00 | 0.11 | 0.01 | 90 | 1012.8 |
| 20260510080514 | 57 | 98 | 0.0 | 0.0 | 0.00 | 0.11 | 0.01 | 90 | 1012.7 |
| 20260510080013 | 57 | 98 | 0.0 | 0.0 | 0.00 | 0.11 | 0.01 | 90 | 1012.7 |
| 20260510075515 | 57 | 98 | 0.0 | 0.0 | 0.00 | 0.11 | 0.01 | 90 | 1012.6 |
| 20260510075011 | 58 | 98 | 0.0 | 0.0 | 0.00 | 0.11 | 0.01 | 91 | 1012.5 |
| 20260510074510 | 58 | 98 | 0.0 | 0.0 | 0.00 | 0.11 | 0.01 | 90 | 1012.3 |
| 20260510074014 | 58 | 98 | 0.0 | 0.0 | 0.00 | 0.11 | 0.01 | 91 | 1012.2 |
| 20260510073512 | 58 | 98 | 0.0 | 0.0 | 0.00 | 0.11 | 0.01 | 91 | 1012.3 |
| 20260510073011 | 58 | 98 | 0.0 | 0.0 | 0.00 | 0.11 | 0.01 | 91 | 1012.2 |
| 20260510072508 | 58 | 98 | 0.0 | 0.0 | 0.00 | 0.11 | 0.01 | 91 | 1012.3 |
| 20260510072012 | 58 | 98 | 0.0 | 0.0 | 0.00 | 0.11 | 0.01 | 91 | 1012.2 |
| 20260510071508 | 58 | 98 | 0.0 | 0.0 | 0.00 | 0.11 | 0.01 | 91 | 1012.2 |
| 20260510071006 | 59 | 98 | 0.0 | 0.0 | 0.00 | 0.11 | 0.01 | 91 | 1012.2 |
| 20260510070506 | 59 | 98 | 0.0 | 0.0 | 0.00 | 0.11 | 0.01 | 91 | 1012.1 |
| 20260510070009 | 59 | 98 | 0.0 | 0.0 | 0.00 | 0.12 | 0.01 | 91 | 1012.2 |
| 20260510065505 | 59 | 98 | 0.0 | 0.0 | 0.00 | 0.12 | 0.01 | 91 | 1012.3 |
| 20260510065008 | 59 | 98 | 0.0 | 0.0 | 0.00 | 0.12 | 0.01 | 91 | 1012.2 |
| 20260510064517 | 59 | 98 | 0.0 | 0.0 | 0.00 | 0.12 | 0.01 | 91 | 1012.2 |
| 20260510064004 | 59 | 98 | 0.0 | 0.0 | 0.00 | 0.12 | 0.01 | 91 | 1012.3 |
| 20260510063503 | 59 | 98 | 0.0 | 0.0 | 0.00 | 0.12 | 0.01 | 91 | 1012.3 |
| 20260510063003 | 59 | 98 | 0.0 | 0.0 | 0.00 | 0.12 | 0.01 | 91 | 1012.2 |
| 20260510062502 | 59 | 98 | 0.0 | 0.0 | 0.00 | 0.12 | 0.01 | 91 | 1012.2 |
| 20260510062002 | 59 | 98 | 0.0 | 0.0 | 0.00 | 0.12 | 0.01 | 91 | 1012.0 |
| 20260510061508 | 59 | 98 | 0.0 | 0.0 | 0.00 | 0.12 | 0.01 | 91 | 1011.9 |
| 20260510061001 | 60 | 98 | 0.0 | 0.0 | 0.00 | 0.12 | 0.01 | 91 | 1011.9 |
| 20260510060502 | 60 | 98 | 0.0 | 0.0 | 0.01 | 0.12 | 0.01 | 91 | 1012.0 |
| 20260510060100 | 60 | 98 | 0.0 | 0.0 | 0.01 | 0.12 | 0.01 | 91 | 1012.1 |
| 20260510055600 | 60 | 98 | 0.0 | 0.0 | 0.01 | 0.12 | 0.01 | 91 | 1012.2 |
| 20260510055101 | 60 | 98 | 0.0 | 0.0 | 0.01 | 0.12 | 0.01 | 90 | 1012.1 |
| 20260510054559 | 60 | 98 | 0.0 | 0.0 | 0.01 | 0.12 | 0.01 | 90 | 1012.1 |
| 20260510054058 | 60 | 98 | 0.0 | 0.0 | 0.01 | 0.12 | 0.01 | 90 | 1012.2 |
| 20260510053557 | 60 | 98 | 0.0 | 0.0 | 0.01 | 0.12 | 0.01 | 90 | 1012.0 |
| 20260510053056 | 60 | 98 | 0.0 | 0.0 | 0.01 | 0.12 | 0.01 | 90 | 1011.4 |
| 20260510052556 | 60 | 98 | 0.0 | 1.0 | 0.01 | 0.12 | 0.01 | 90 | 1011.3 |
| 20260510052055 | 60 | 98 | 0.0 | 0.0 | 0.01 | 0.12 | 0.01 | 91 | 1011.2 |
| 20260510051559 | 60 | 98 | 0.0 | 0.0 | 0.01 | 0.12 | 0.01 | 90 | 1011.2 |
| 20260510051057 | 60 | 98 | 0.0 | 1.0 | 0.02 | 0.12 | 0.01 | 90 | 1011.4 |
| 20260510050554 | 60 | 98 | 0.0 | 1.0 | 0.01 | 0.11 | 0.00 | 90 | 1011.0 |
| 20260510050055 | 60 | 108 | 0.0 | 1.0 | 0.02 | 0.11 | 0.00 | 90 | 1011.3 |
| 20260510045553 | 60 | 105 | 0.0 | 1.0 | 0.03 | 0.11 | 0.11 | 90 | 1011.5 |
| 20260510045054 | 60 | 106 | 0.0 | 2.0 | 0.03 | 0.11 | 0.11 | 90 | 1011.4 |
| 20260510044552 | 60 | 106 | 0.0 | 2.0 | 0.04 | 0.11 | 0.11 | 89 | 1010.8 |
| 20260510044053 | 60 | 107 | 0.0 | 0.0 | 0.04 | 0.11 | 0.11 | 89 | 1010.6 |
| 20260510043557 | 60 | 107 | 0.0 | 0.0 | 0.04 | 0.11 | 0.11 | 89 | 1010.5 |
| 20260510043053 | 61 | 107 | 0.0 | 1.0 | 0.04 | 0.11 | 0.11 | 89 | 1010.6 |
| 20260510042551 | 61 | 107 | 0.0 | 1.0 | 0.05 | 0.11 | 0.11 | 90 | 1011.0 |
| 20260510042052 | 61 | 107 | 0.0 | 0.0 | 0.06 | 0.11 | 0.11 | 90 | 1011.2 |
| 20260510041553 | 61 | 107 | 0.0 | 1.0 | 0.06 | 0.11 | 0.11 | 89 | 1011.1 |
| 20260510041052 | 61 | 107 | 0.0 | 1.0 | 0.06 | 0.10 | 0.10 | 89 | 1011.1 |
| 20260510040554 | 61 | 109 | 0.0 | 1.0 | 0.07 | 0.10 | 0.10 | 89 | 1011.5 |
| 20260510040051 | 61 | 109 | 0.0 | 0.0 | 0.06 | 0.09 | 0.09 | 88 | 1011.5 |
| 20260510035552 | 61 | 109 | 0.0 | 0.0 | 0.06 | 0.09 | 0.08 | 88 | 1011.6 |
| 20260510035050 | 61 | 109 | 0.0 | 0.0 | 0.07 | 0.09 | 0.08 | 88 | 1011.3 |
| 20260510034551 | 61 | 109 | 0.0 | 1.0 | 0.06 | 0.08 | 0.07 | 87 | 1011.1 |
| 20260510034051 | 61 | 109 | 0.0 | 1.0 | 0.06 | 0.08 | 0.07 | 87 | 1010.8 |
| 20260510033550 | 61 | 61 | 0.0 | 0.0 | 0.06 | 0.08 | 0.07 | 86 | 1011.1 |
| 20260510033101 | 62 | 61 | 0.0 | 0.0 | 0.06 | 0.08 | 0.07 | 86 | 1011.1 |
| 20260510032549 | 62 | 61 | 0.0 | 1.0 | 0.05 | 0.07 | 0.06 | 86 | 1011.3 |
| 20260510032049 | 62 | 62 | 0.0 | 2.0 | 0.04 | 0.06 | 0.05 | 85 | 1011.4 |
| 20260510031549 | 62 | 263 | 0.0 | 2.0 | 0.04 | 0.06 | 0.05 | 84 | 1011.3 |
| 20260510031048 | 63 | 105 | 0.0 | 9.0 | 0.03 | 0.05 | 0.04 | 83 | 1011.2 |
| 20260510030548 | 63 | 177 | 0.0 | 9.0 | 0.02 | 0.04 | 0.03 | 83 | 1011.3 |
| 20260510030048 | 64 | 309 | 0.0 | 4.0 | 0.02 | 0.04 | 0.03 | 81 | 1011.2 |
| 20260510025547 | 64 | 110 | 0.0 | 4.0 | 0.01 | 0.18 | 0.02 | 80 | 1011.2 |
| 20260510025046 | 64 | 325 | 0.0 | 3.0 | 0.00 | 0.17 | 0.01 | 77 | 1010.9 |
| 20260510024545 | 63 | 312 | 0.0 | 3.0 | 0.00 | 0.17 | 0.01 | 76 | 1010.6 |
| 20260510024043 | 63 | 116 | 0.0 | 0.0 | 0.00 | 0.17 | 0.01 | 77 | 1009.1 |
| 20260510023543 | 63 | 116 | 0.0 | 0.0 | 0.00 | 0.17 | 0.01 | 76 | 1008.7 |
| 20260510023044 | 63 | 116 | 0.0 | 0.0 | 0.00 | 0.17 | 0.01 | 77 | 1008.6 |
| 20260510022543 | 63 | 116 | 0.0 | 0.0 | 0.00 | 0.17 | 0.01 | 77 | 1008.5 |
| 20260510022043 | 64 | 116 | 0.0 | 0.0 | 0.00 | 0.17 | 0.01 | 76 | 1008.5 |
| 20260510021546 | 64 | 116 | 0.0 | 0.0 | 0.00 | 0.17 | 0.01 | 75 | 1008.4 |
| 20260510021044 | 64 | 116 | 0.0 | 0.0 | 0.00 | 0.17 | 0.01 | 73 | 1008.3 |
| 20260510020543 | 64 | 116 | 0.0 | 0.0 | 0.00 | 0.17 | 0.01 | 75 | 1008.3 |
| 20260510020043 | 65 | 116 | 0.0 | 0.0 | 0.00 | 0.17 | 0.01 | 74 | 1008.2 |
| 20260510015543 | 65 | 116 | 0.0 | 0.0 | 0.00 | 0.32 | 0.01 | 72 | 1008.2 |
| 20260510015042 | 65 | 116 | 0.0 | 0.0 | 0.00 | 0.32 | 0.01 | 73 | 1008.1 |
| 20260510014544 | 66 | 116 | 0.0 | 0.0 | 0.00 | 0.32 | 0.01 | 73 | 1008.0 |
| 20260510014042 | 66 | 116 | 0.0 | 0.0 | 0.00 | 0.32 | 0.01 | 72 | 1007.8 |
| 20260510013542 | 67 | 116 | 0.0 | 0.0 | 0.00 | 0.32 | 0.01 | 71 | 1007.8 |
| 20260510013042 | 67 | 116 | 0.0 | 0.0 | 0.00 | 0.32 | 0.01 | 71 | 1007.7 |
| 20260510012543 | 68 | 116 | 0.0 | 0.0 | 0.00 | 0.32 | 0.01 | 70 | 1007.6 |
| 20260510012044 | 68 | 116 | 0.0 | 0.0 | 0.00 | 0.32 | 0.01 | 69 | 1007.6 |
| 20260510011541 | 69 | 116 | 0.0 | 0.0 | 0.00 | 0.32 | 0.01 | 69 | 1007.7 |
| 20260510011042 | 69 | 116 | 0.0 | 0.0 | 0.00 | 0.32 | 0.01 | 67 | 1007.7 |
| 20260510010541 | 70 | 116 | 0.0 | 0.0 | 0.00 | 0.32 | 0.01 | 67 | 1007.8 |
| 20260509233533 | 78 | 115 | 0.0 | 1.0 | 0.00 | 0.34 | 0.01 | 50 | 1007.2 |
| 20260509233036 | 78 | 117 | 0.0 | 0.0 | 0.00 | 0.34 | 0.01 | 46 | 1007.3 |
| 20260509232535 | 78 | 117 | 0.0 | 1.0 | 0.00 | 0.34 | 0.01 | 52 | 1007.3 |
| 20260509232033 | 78 | 117 | 0.0 | 1.0 | 0.00 | 0.34 | 0.01 | 49 | 1007.2 |
| 20260509231534 | 78 | 113 | 0.0 | 5.0 | 0.00 | 0.34 | 0.01 | 47 | 1007.3 |
| 20260509231032 | 79 | 115 | 0.0 | 5.0 | 0.00 | 0.34 | 0.01 | 43 | 1007.2 |
| 20260509230533 | 79 | 81 | 0.0 | 2.0 | 0.00 | 0.34 | 0.01 | 53 | 1007.2 |
| 20260509230032 | 79 | 53 | 0.0 | 1.0 | 0.00 | 0.34 | 0.01 | 44 | 1007.3 |
| 20260509225535 | 79 | 336 | 0.0 | 1.0 | 0.00 | 0.34 | 0.01 | 44 | 1007.1 |
| 20260509225032 | 79 | 336 | 0.0 | 2.0 | 0.00 | 0.34 | 0.01 | 44 | 1007.1 |
| 20260509224544 | 80 | 340 | 0.0 | 2.0 | 0.00 | 0.34 | 0.01 | 42 | 1007.1 |
| 20260509224031 | 80 | 182 | 0.0 | 2.0 | 0.00 | 0.34 | 0.01 | 43 | 1007.2 |
| 20260509223531 | 80 | 288 | 0.0 | 2.0 | 0.00 | 0.34 | 0.01 | 44 | 1007.2 |
| 20260509223031 | 80 | 18 | 0.0 | 2.0 | 0.00 | 0.34 | 0.01 | 47 | 1007.2 |
| 20260509222530 | 80 | 323 | 0.0 | 1.0 | 0.00 | 0.34 | 0.01 | 42 | 1007.1 |
| 20260509222035 | 80 | 321 | 0.0 | 1.0 | 0.00 | 0.34 | 0.01 | 40 | 1007.2 |
| 20260509221532 | 80 | 306 | 0.0 | 1.0 | 0.00 | 0.34 | 0.01 | 41 | 1007.2 |
| 20260509221030 | 80 | 306 | 0.0 | 3.0 | 0.00 | 0.34 | 0.01 | 40 | 1007.2 |
| 20260509220529 | 80 | 309 | 0.0 | 3.0 | 0.00 | 0.34 | 0.01 | 40 | 1007.2 |
| 20260509220029 | 81 | 171 | 0.0 | 1.0 | 0.00 | 0.34 | 0.01 | 41 | 1007.2 |
| 20260509215529 | 81 | 171 | 0.0 | 4.0 | 0.00 | 0.34 | 0.01 | 49 | 1007.2 |
| 20260509215029 | 81 | 171 | 0.0 | 4.0 | 0.00 | 0.34 | 0.01 | 40 | 1007.2 |
| 20260509214528 | 81 | 296 | 0.0 | 2.0 | 0.00 | 0.34 | 0.01 | 42 | 1007.3 |
| 20260509214031 | 81 | 157 | 0.0 | 2.0 | 0.00 | 0.34 | 0.01 | 43 | 1007.2 |
| 20260509213527 | 81 | 157 | 0.0 | 3.0 | 0.00 | 0.34 | 0.01 | 41 | 1007.2 |
| 20260509213027 | 82 | 110 | 1.0 | 3.0 | 0.00 | 0.34 | 0.01 | 38 | 1007.2 |
| 20260509212526 | 82 | 124 | 0.0 | 2.0 | 0.00 | 0.34 | 0.01 | 43 | 1007.3 |
| 20260509212030 | 82 | 104 | 0.0 | 2.0 | 0.00 | 0.34 | 0.01 | 39 | 1007.4 |
| 20260509211527 | 83 | 175 | 0.0 | 2.0 | 0.00 | 0.34 | 0.01 | 38 | 1007.3 |
| 20260509211028 | 83 | 174 | 0.0 | 4.0 | 0.00 | 0.34 | 0.01 | 39 | 1007.4 |
| 20260509210526 | 84 | 117 | 1.0 | 4.0 | 0.00 | 0.34 | 0.01 | 37 | 1007.5 |
| 20260509210026 | 84 | 105 | 0.0 | 2.0 | 0.00 | 0.34 | 0.01 | 39 | 1007.5 |
| 20260509205525 | 84 | 67 | 0.0 | 1.0 | 0.00 | 0.34 | 0.01 | 42 | 1007.5 |
| 20260509205025 | 84 | 65 | 0.0 | 3.0 | 0.00 | 0.34 | 0.01 | 42 | 1007.6 |
| 20260509204523 | 83 | 45 | 0.0 | 4.0 | 0.00 | 0.34 | 0.01 | 42 | 1007.5 |
| 20260509204023 | 83 | 313 | 0.0 | 4.0 | 0.00 | 0.34 | 0.01 | 44 | 1007.5 |
| 20260509203522 | 83 | 130 | 0.0 | 2.0 | 0.00 | 0.34 | 0.01 | 44 | 1007.6 |
| 20260509203021 | 83 | 37 | 0.0 | 2.0 | 0.00 | 0.34 | 0.01 | 45 | 1007.7 |
| 20260509202521 | 83 | 136 | 1.0 | 4.0 | 0.00 | 0.34 | 0.01 | 42 | 1007.7 |
| 20260509202020 | 83 | 349 | 0.0 | 4.0 | 0.00 | 0.34 | 0.01 | 41 | 1007.8 |
| 20260509201520 | 83 | 103 | 0.0 | 2.0 | 0.00 | 0.34 | 0.01 | 45 | 1007.8 |
| 20260509201021 | 82 | 347 | 0.0 | 3.0 | 0.00 | 0.34 | 0.01 | 44 | 1007.8 |
| 20260509200518 | 82 | 254 | 0.0 | 3.0 | 0.00 | 0.34 | 0.01 | 49 | 1007.9 |
| 20260509200018 | 82 | 298 | 0.0 | 3.0 | 0.00 | 0.34 | 0.01 | 48 | 1007.8 |
| 20260509195518 | 82 | 314 | 0.0 | 3.0 | 0.00 | 0.34 | 0.01 | 52 | 1007.9 |
| 20260509195016 | 81 | 315 | 0.0 | 3.0 | 0.00 | 0.34 | 0.01 | 50 | 1008.0 |
| 20260509194519 | 81 | 247 | 0.0 | 3.0 | 0.00 | 0.34 | 0.01 | 46 | 1008.0 |
| 20260509194016 | 81 | 305 | 0.0 | 2.0 | 0.00 | 0.34 | 0.01 | 46 | 1008.0 |
| 20260509193516 | 82 | 335 | 0.0 | 3.0 | 0.00 | 0.34 | 0.01 | 45 | 1008.0 |
| 20260509193016 | 81 | 138 | 0.0 | 3.0 | 0.00 | 0.34 | 0.01 | 54 | 1008.0 |